1494201600.15,3995,15.25,72790.5,-3.91,-11.97,-10.45,0,*63
1494201601.41,3996,15.25,72788.8,-3.89,-11.97,-10.45,0,*69
1494201602.66,3997,15.25,72790.8,-3.89,-11.81,-10.31,0,*6C
1494201603.9,3998,15.25,72784.5,-3.87,-11.89,-10.35,0,*61
1494201605.16,3999,15.25,72786.5,-3.89,-11.93,-10.49,0,*6E
1494201606.43,4000,15.25,72784.3,-3.89,-11.93,-10.45,0,*6C
1494201607.69,4001,15.25,72782.3,-3.89,-11.93,-10.45,0,*6D
1494201608.95,4002,15.25,72786.0,-3.89,-11.97,-10.57,0,*69
1494201610.22,4003,15.25,72782.5,-3.89,-11.93,-10.45,0,*6F
1494201611.48,4004,15.25,72782.5,-3.89,-12.07,-10.57,0,*65
1494201612.74,4005,15.25,72782.5,-3.89,-12.07,-10.57,0,*64
1494201614.0,4006,15.25,72786.3,-3.87,-11.93,-10.41,0,*60
1494201615.29,4007,15.25,72782.5,-3.89,-11.97,-10.41,0,*6B
1494201616.56,4008,15.25,72786.5,-3.87,-11.93,-10.41,0,*6E
1494201617.79,4009,15.25,72786.5,-3.87,-11.93,-10.49,0,*67
1494201618.99,4010,15.25,72786.3,-3.87,-12.03,-10.53,0,*6E
1494201620.23,4011,15.25,72786.3,-3.87,-11.93,-10.49,0,*6E
1494201621.46,4012,15.25,72784.0,-3.87,-11.93,-10.49,0,*6D
1494201622.69,4013,15.25,72786.3,-3.87,-12.07,-10.53,0,*69
1494201623.89,4014,15.25,72790.5,-3.87,-12.03,-10.49,0,*61
1494201625.15,4015,15.25,72786.0,-3.89,-11.97,-10.45,0,*6C
1494201626.38,4016,15.25,72788.8,-3.83,-11.89,-10.49,0,*66
1494201627.61,4017,15.25,72786.8,-3.83,-11.97,-10.49,0,*68
1494201628.84,4018,15.25,72788.5,-3.83,-11.97,-10.49,0,*67
1494201630.04,4019,15.25,72790.0,-3.87,-12.03,-10.53,0,*67
1494201631.27,4020,15.25,72790.8,-3.87,-12.07,-10.53,0,*69
1494201632.51,4021,15.25,72790.8,-3.87,-11.93,-10.53,0,*66
1494201633.74,4022,15.25,72792.0,-3.83,-11.97,-10.49,0,*6E
1494201634.97,4023,15.25,72788.3,-3.83,-11.97,-10.49,0,*6F
1494201636.2,4024,15.25,72788.3,-3.83,-11.89,-10.45,0,*6B
1494201637.45,4025,15.25,72790.3,-3.81,-11.97,-10.45,0,*67
1494201638.68,4026,15.31,72794.5,-3.83,-11.97,-10.57,0,*65
1494201639.91,4027,15.25,72788.5,-3.83,-11.97,-10.57,0,*64
1494201641.14,4028,15.25,72790.8,-3.81,-12.03,-10.49,0,*68
1494201642.37,4029,15.25,72790.0,-3.83,-12.03,-10.67,0,*67
1494201643.6,4030,15.25,72790.5,-3.81,-12.03,-10.49,0,*61
1494201644.89,4031,15.25,72790.0,-3.81,-12.11,-10.67,0,*6F
1494201646.12,4032,15.25,72790.8,-3.83,-11.97,-10.49,0,*6F
1494201647.32,4033,15.25,72790.3,-3.83,-12.03,-10.57,0,*6F
1494201648.58,4034,15.25,72788.5,-3.81,-11.97,-10.49,0,*6B
1494201649.81,4035,15.25,72788.8,-3.83,-11.97,-10.57,0,*67
1494201651.06,4036,15.25,72790.5,-3.81,-11.97,-10.49,0,*69
1494201652.29,4037,15.25,72788.5,-3.83,-11.89,-10.49,0,*65
1494201653.55,4038,15.25,72788.5,-3.81,-11.89,-10.45,0,*64
1494201654.75,4039,15.25,72788.0,-3.83,-12.03,-10.57,0,*65
1494201656.01,4040,15.25,72788.0,-3.81,-11.97,-10.49,0,*68
1494201657.26,4041,15.25,72790.8,-3.81,-12.11,-10.57,0,*6B
1494201658.49,4042,15.25,72788.5,-3.83,-12.11,-10.57,0,*6A
1494201659.78,4043,15.25,72792.8,-3.81,-12.11,-10.67,0,*6A
1494201661.01,4044,15.25,72790.5,-3.83,-11.97,-10.49,0,*6E
1494201662.24,4045,15.25,72792.5,-3.81,-12.03,-10.57,0,*6C
1494201663.47,4046,15.25,72788.0,-3.83,-11.97,-10.45,0,*60
1494201664.67,4047,15.25,72790.8,-3.83,-12.03,-10.49,0,*63
1494201665.93,4048,15.25,72788.0,-3.83,-12.11,-10.75,0,*60
1494201667.19,4049,15.25,72788.5,-3.83,-12.11,-10.67,0,*62
1494201668.42,4050,15.25,72788.5,-3.81,-12.03,-10.57,0,*68
1494201669.65,4051,15.25,72784.3,-3.81,-12.03,-10.57,0,*69
1494201670.88,4052,15.25,72788.3,-3.83,-11.97,-10.57,0,*66
1494201672.13,4053,15.25,72790.8,-3.81,-11.97,-10.57,0,*65
1494201673.36,4054,15.25,72790.0,-3.83,-11.97,-10.57,0,*60
1494201674.62,4055,15.25,72790.3,-3.81,-11.89,-10.45,0,*6F
1494201675.85,4056,15.25,72790.8,-3.83,-11.97,-10.49,0,*6D
1494201677.1,4057,15.25,72792.3,-3.83,-12.15,-10.75,0,*6A
1494201678.36,4058,15.25,72788.5,-3.81,-12.15,-10.57,0,*67
1494201679.62,4059,15.25,72790.8,-3.83,-12.15,-10.75,0,*64
1494201680.88,4060,15.25,72784.0,-3.81,-12.29,-10.79,0,*6F
1494201682.14,4061,15.25,72782.8,-3.81,-12.29,-10.79,0,*6E
1494201683.37,4062,15.25,72786.3,-3.83,-12.25,-10.79,0,*63
1494201684.65,4063,15.25,72790.8,-3.81,-12.15,-10.75,0,*6F
1494201685.94,4064,15.25,72788.8,-3.81,-12.15,-10.75,0,*68
1494201687.17,4065,15.25,72792.3,-3.81,-12.03,-10.57,0,*6E
1494201688.42,4066,15.25,72794.3,-3.81,-11.89,-10.49,0,*63
1494201689.71,4067,15.25,72790.3,-3.81,-12.15,-10.67,0,*68
1494201691.0,4068,15.25,72788.5,-3.81,-12.11,-10.67,0,*63
1494201692.26,4069,15.25,72790.5,-3.81,-12.03,-10.67,0,*61
1494201693.54,4070,15.25,72784.5,-3.81,-12.15,-10.67,0,*6E
1494201694.8,4071,15.25,72784.3,-3.81,-11.89,-10.45,0,*69
1494201696.03,4072,15.25,72790.0,-3.81,-12.03,-10.57,0,*68
1494201697.28,4073,15.25,72798.0,-3.81,-11.97,-10.49,0,*68
1494201698.54,4074,15.25,72790.3,-3.81,-11.97,-10.57,0,*60
1494201699.8,4075,15.25,72788.5,-3.81,-12.11,-10.57,0,*6C
1494201701.05,4076,15.25,72790.5,-3.81,-11.97,-10.49,0,*6D
1494201702.31,4077,15.25,72788.3,-3.81,-11.89,-10.45,0,*6F
1494201703.57,4078,15.25,72786.5,-3.81,-11.89,-10.45,0,*60
1494201704.79,4079,15.25,72786.8,-3.79,-11.85,-10.45,0,*6A
1494201706.02,4080,15.25,72792.0,-3.79,-11.97,-10.45,0,*6F
1494201707.25,4081,15.25,72786.8,-3.79,-11.97,-10.53,0,*69
1494201708.48,4082,15.25,72788.5,-3.79,-12.07,-10.53,0,*60
1494201709.7,4083,15.25,72790.5,-3.79,-11.97,-10.53,0,*6B
1494201710.94,4084,15.25,72788.5,-3.79,-11.93,-10.45,0,*6F
1494201712.2,4085,15.25,72794.8,-3.79,-11.97,-10.41,0,*6E
1494201713.46,4086,15.25,72788.5,-3.75,-11.93,-10.41,0,*65
1494201714.72,4087,15.25,72790.3,-3.79,-12.11,-10.63,0,*61
1494201715.97,4088,15.25,72792.5,-3.79,-12.07,-10.63,0,*69
1494201717.25,4089,15.25,72794.0,-3.77,-12.07,-10.71,0,*65
1494201718.53,4090,15.25,72788.0,-3.77,-12.11,-10.71,0,*6A
1494201719.78,4091,15.25,72790.3,-3.79,-12.11,-10.71,0,*65
1494201721.03,4092,15.25,72792.0,-3.79,-12.11,-10.71,0,*66
1494201722.31,4093,15.25,72792.0,-3.77,-12.11,-10.63,0,*6A
1494201723.54,4094,15.25,72792.5,-3.79,-11.97,-10.53,0,*6D
1494201724.82,4095,15.25,72792.8,-3.77,-12.11,-10.63,0,*6C
1494201726.07,4096,15.25,72788.8,-3.77,-12.07,-10.53,0,*6B
1494201727.33,4097,15.25,72794.0,-3.79,-12.11,-10.63,0,*60
1494201728.59,4098,15.25,72792.0,-3.79,-12.35,-10.75,0,*6E
1494201729.84,4099,15.25,72792.3,-3.79,-12.11,-10.71,0,*6D
1494201731.09,4100,15.25,72794.5,-3.77,-12.07,-10.53,0,*65
1494201732.32,4101,15.25,72794.0,-3.79,-12.21,-10.71,0,*6E
1494201733.6,4102,15.25,72790.8,-3.77,-12.11,-10.71,0,*60
1494201734.84,4103,15.25,72794.3,-3.79,-12.21,-10.75,0,*68
1494201736.07,4104,15.25,72792.0,-3.79,-12.21,-10.75,0,*6F
1494201737.28,4105,15.25,72792.8,-3.79,-12.25,-10.89,0,*69
1494201738.56,4106,15.25,72794.3,-3.77,-12.11,-10.75,0,*60
1494201739.79,4107,15.25,72798.5,-3.79,-12.35,-10.89,0,*6A
1494201741.01,4108,15.25,72796.8,-3.79,-12.35,-10.85,0,*69
1494201742.26,4109,15.25,72792.8,-3.79,-12.11,-10.71,0,*65
1494201743.5,4110,15.25,72794.3,-3.79,-12.21,-10.71,0,*6E
1494201744.75,4111,15.25,72792.5,-3.79,-12.11,-10.71,0,*6C
1494201745.99,4112,15.25,72792.3,-3.79,-12.21,-10.63,0,*6F
1494201747.22,4113,15.25,72796.0,-3.79,-12.21,-10.75,0,*69
1494201748.46,4114,15.25,72794.8,-3.79,-12.21,-10.71,0,*6A
1494201749.69,4115,15.25,72798.8,-3.79,-12.25,-10.75,0,*6B
1494201750.92,4116,15.25,72794.8,-3.79,-12.21,-10.71,0,*68
1494201752.16,4117,15.25,72798.0,-3.79,-12.21,-10.75,0,*6D
1494201753.36,4118,15.25,72796.8,-3.79,-12.25,-10.85,0,*69
1494201754.59,4119,15.25,72798.8,-3.79,-12.25,-10.75,0,*67
1494201755.82,4120,15.25,72790.8,-3.79,-12.25,-10.71,0,*69
1494201757.06,4121,15.25,72790.3,-3.79,-12.21,-10.63,0,*6F
1494201758.29,4122,15.25,72792.5,-3.79,-12.21,-10.71,0,*6F
1494201759.55,4123,15.25,72794.5,-3.79,-12.11,-10.71,0,*6D
1494201760.78,4124,15.25,72790.0,-3.79,-12.21,-10.71,0,*69
1494201762.04,4125,15.25,72798.0,-3.79,-12.11,-10.63,0,*68
1494201763.27,4126,15.25,72794.5,-3.79,-12.21,-10.71,0,*6B
1494201764.53,4127,15.25,72794.3,-3.77,-12.21,-10.71,0,*64
1494201765.76,4128,15.25,72794.8,-3.79,-12.25,-10.75,0,*65
1494201766.98,4129,15.25,72798.5,-3.77,-12.25,-10.85,0,*65
1494201768.26,4130,15.25,72796.8,-3.77,-12.11,-10.75,0,*65
1494201769.52,4131,15.25,72794.0,-3.77,-12.35,-10.89,0,*61
1494201770.72,4132,15.25,72794.8,-3.79,-12.25,-10.89,0,*6D
1494201771.97,4133,15.25,72794.3,-3.77,-12.35,-10.89,0,*63
1494201773.2,4134,15.25,72796.8,-3.79,-12.35,-10.89,0,*6A
1494201774.4,4135,15.25,72798.8,-3.79,-12.39,-10.89,0,*67
1494201775.63,4136,15.25,72796.5,-3.77,-12.39,-10.97,0,*65
1494201776.83,4137,15.25,72796.8,-3.79,-12.43,-10.97,0,*67
1494201778.06,4138,15.25,72796.8,-3.79,-12.53,-11.01,0,*67
1494201779.3,4139,15.25,72792.8,-3.79,-12.53,-11.01,0,*66
1494201780.53,4140,15.25,72798.3,-3.79,-12.53,-11.01,0,*68
1494201781.75,4141,15.25,72796.8,-3.79,-12.57,-11.01,0,*6D
1494201782.95,4142,15.25,72794.3,-3.79,-12.39,-10.89,0,*67
1494201784.18,4143,15.25,72796.5,-3.81,-12.47,-10.93,0,*63
1494201785.41,4144,15.25,72796.3,-3.81,-12.43,-10.93,0,*60
1494201786.64,4145,15.25,72794.3,-3.81,-12.43,-10.93,0,*61
1494201787.87,4146,15.25,72794.8,-3.81,-12.47,-11.01,0,*6C
1494201789.1,4147,15.25,72792.5,-3.81,-12.43,-10.89,0,*68
1494201790.3,4148,15.25,72792.0,-3.83,-12.47,-11.01,0,*60
1494201791.53,4149,15.25,72794.3,-3.81,-12.47,-10.93,0,*69
1494201792.76,4150,15.25,72792.3,-3.81,-12.43,-10.93,0,*65
1494201793.99,4151,15.25,72794.5,-3.81,-12.29,-10.89,0,*63
1494201795.19,4152,15.25,72790.5,-3.83,-12.39,-10.93,0,*68
1494201796.45,4153,15.25,72794.0,-3.81,-12.39,-10.79,0,*6F
1494201797.71,4154,15.25,72792.3,-3.81,-12.29,-10.75,0,*65
1494201798.94,4155,15.25,72794.5,-3.81,-12.39,-10.93,0,*6D
1494201800.14,4156,15.25,72794.3,-3.83,-12.43,-10.93,0,*61
1494201801.4,4157,15.25,72788.8,-3.81,-12.29,-10.79,0,*6A
1494201802.66,4158,15.25,72794.3,-3.81,-12.25,-10.75,0,*65
1494201803.89,4159,15.25,72790.0,-3.83,-12.39,-10.79,0,*67
1494201805.12,4160,15.25,72798.3,-3.81,-12.47,-11.01,0,*68
1494201806.38,4161,15.25,72796.8,-3.81,-12.47,-11.07,0,*6F
1494201807.6,4162,15.25,72792.3,-3.81,-12.43,-10.93,0,*64
1494201808.81,4163,15.25,72796.0,-3.83,-12.39,-10.89,0,*61
1494201810.03,4164,15.25,72798.3,-3.81,-12.43,-10.93,0,*62
1494201811.29,4165,15.25,72798.0,-3.81,-12.57,-11.01,0,*6C
1494201812.52,4166,15.25,72796.8,-3.81,-12.47,-11.01,0,*6E
1494201813.75,4167,15.25,72796.3,-3.81,-12.43,-10.93,0,*61
1494201814.95,4168,15.25,72796.3,-3.83,-12.47,-11.01,0,*62
1494201816.18,4169,15.25,72796.3,-3.81,-12.39,-10.93,0,*62
1494201817.39,4170,15.25,72798.5,-3.83,-12.29,-10.89,0,*62
1494201818.61,4171,15.25,72798.3,-3.81,-12.43,-10.93,0,*66
1494201819.84,4172,15.25,72796.3,-3.81,-12.39,-10.89,0,*63
1494201821.07,4173,15.25,72794.8,-3.83,-12.39,-10.79,0,*6F
1494201822.33,4174,15.25,72794.8,-3.81,-12.29,-10.75,0,*67
1494201823.56,4175,15.25,72792.3,-3.83,-12.29,-10.79,0,*68
1494201824.8,4176,15.25,72794.8,-3.83,-12.29,-10.75,0,*67
1494201826.0,4177,15.25,72792.3,-3.83,-12.39,-10.89,0,*64
1494201827.26,4178,15.25,72790.5,-3.81,-12.29,-10.75,0,*6B
1494201828.52,4179,15.25,72792.3,-3.81,-12.29,-10.79,0,*66
1494201829.78,4180,15.25,72792.0,-3.81,-12.39,-10.79,0,*61
1494201831.0,4181,15.25,72790.0,-3.81,-12.43,-10.93,0,*69
1494201832.23,4182,15.25,72792.8,-3.81,-12.39,-10.93,0,*67
1494201833.46,4183,15.25,72792.0,-3.81,-12.43,-10.89,0,*60
1494201834.69,4184,15.25,72790.3,-3.81,-12.39,-10.93,0,*61
1494201835.91,4185,15.25,72794.5,-3.81,-12.39,-10.89,0,*6B
1494201837.18,4186,15.25,72792.0,-3.81,-12.25,-10.75,0,*66
1494201838.41,4187,15.25,72788.3,-3.81,-12.25,-10.57,0,*67
1494201839.7,4188,15.25,72788.5,-3.81,-12.15,-10.67,0,*68
1494201840.96,4189,15.25,72790.5,-3.81,-12.25,-10.75,0,*69
1494201842.22,4190,15.25,72790.3,-3.81,-12.25,-10.79,0,*6D
1494201843.51,4191,15.25,72790.0,-3.81,-12.15,-10.67,0,*60
1494201844.79,4192,15.25,72790.3,-3.81,-12.11,-10.67,0,*67
1494201846.05,4193,15.25,72790.3,-3.83,-12.15,-10.75,0,*63
1494201847.33,4194,15.25,72788.5,-3.81,-12.15,-10.75,0,*66
1494201848.57,4195,15.25,72788.0,-3.79,-12.25,-10.75,0,*63
1494201849.8,4196,15.25,72790.3,-3.79,-12.21,-10.75,0,*64
1494201851.04,4197,15.25,72794.3,-3.79,-12.21,-10.71,0,*61
1494201852.27,4198,15.25,72792.3,-3.79,-12.21,-10.71,0,*6E
1494201853.52,4199,15.25,72794.0,-3.79,-12.11,-10.71,0,*6C
1494201854.75,4200,15.25,72794.0,-3.79,-12.11,-10.53,0,*6F
1494201856.0,4201,15.25,72792.5,-3.79,-12.11,-10.71,0,*6E
1494201857.27,4202,15.25,72792.8,-3.81,-12.29,-10.75,0,*65
1494201858.53,4203,15.25,72798.3,-3.81,-12.25,-10.75,0,*68
1494201859.76,4204,15.25,72790.0,-3.79,-12.21,-10.71,0,*68
1494201860.99,4205,15.25,72792.5,-3.79,-12.21,-10.71,0,*69
1494201862.22,4206,15.25,72790.3,-3.79,-12.25,-10.71,0,*6E
1494201863.5,4207,15.25,72788.3,-3.77,-12.11,-10.71,0,*66
1494201864.76,4208,15.25,72790.5,-3.79,-12.11,-10.63,0,*64
1494201865.99,4209,15.25,72792.3,-3.79,-12.25,-10.75,0,*65
1494201867.22,4210,15.25,72794.3,-3.79,-12.21,-10.71,0,*6D
1494201868.46,4211,15.25,72792.3,-3.79,-12.25,-10.75,0,*6C
1494201869.71,4212,15.25,72792.8,-3.79,-12.35,-10.71,0,*6A
1494201870.97,4213,15.25,72794.8,-3.79,-12.35,-10.75,0,*6F
1494201872.22,4214,15.25,72790.5,-3.77,-12.35,-10.89,0,*65
1494201873.42,4215,15.25,72790.3,-3.79,-12.39,-10.89,0,*66
1494201874.62,4216,15.25,72792.3,-3.79,-12.39,-11.01,0,*64
1494201875.82,4217,15.25,72794.8,-3.79,-12.43,-10.97,0,*66
1494201877.02,4218,15.25,72794.5,-3.79,-12.43,-10.97,0,*69
1494201878.26,4219,15.25,72794.0,-3.79,-12.53,-11.01,0,*67
1494201879.49,4220,15.25,72790.5,-3.79,-12.53,-11.01,0,*6D
1494201880.71,4221,15.25,72790.0,-3.77,-12.43,-10.97,0,*6D
1494201882.0,4222,15.25,72790.3,-3.81,-12.57,-11.07,0,*6A
1494201883.23,4223,15.25,72788.0,-3.79,-12.53,-11.01,0,*6E
1494201884.46,4224,15.25,72788.5,-3.79,-12.53,-11.01,0,*69
1494201885.66,4225,15.25,72788.0,-3.79,-12.39,-11.01,0,*64
1494201886.88,4226,15.25,72790.5,-3.79,-12.35,-10.85,0,*66
1494201888.1,4227,15.25,72794.0,-3.79,-12.35,-10.85,0,*67
1494201889.32,4228,15.25,72794.5,-3.79,-12.35,-10.85,0,*68
1494201890.58,4229,15.25,72786.3,-3.81,-12.39,-10.79,0,*61
1494201891.83,4230,15.25,72788.8,-3.79,-12.11,-10.71,0,*6C
1494201893.09,4231,15.25,72794.8,-3.77,-12.21,-10.75,0,*64
1494201894.29,4232,15.25,72788.5,-3.79,-12.25,-10.85,0,*62
1494201895.52,4233,15.25,72792.8,-3.79,-12.25,-10.75,0,*6C
1494201896.78,4234,15.25,72794.5,-3.79,-12.35,-10.75,0,*6A
1494201897.98,4235,15.25,72790.8,-3.79,-12.43,-11.01,0,*68
1494201899.18,4236,15.25,72792.0,-3.79,-12.39,-10.89,0,*67
1494201900.4,4237,15.25,72790.5,-3.79,-12.35,-10.85,0,*66
1494201901.61,4238,15.25,72792.0,-3.79,-12.21,-10.85,0,*6C
1494201902.84,4239,15.25,72794.3,-3.79,-12.25,-10.75,0,*66
1494201904.04,4240,15.25,72792.8,-3.79,-12.39,-10.97,0,*69
1494201905.24,4241,15.25,72796.0,-3.79,-12.39,-10.85,0,*6B
1494201906.43,4242,15.25,72788.3,-3.79,-12.39,-10.85,0,*68
1494201907.66,4243,15.25,72788.5,-3.79,-12.25,-10.75,0,*6B
1494201908.89,4244,15.25,72790.0,-3.79,-12.35,-10.89,0,*6E
1494201910.11,4245,15.25,72794.5,-3.79,-12.35,-10.85,0,*63
1494201911.31,4246,15.25,72794.5,-3.79,-12.39,-10.89,0,*60
1494201912.52,4247,15.25,72790.8,-3.79,-12.43,-10.97,0,*63
1494201913.72,4248,15.25,72792.0,-3.79,-12.43,-10.97,0,*6C
1494201914.92,4249,15.25,72794.0,-3.79,-12.43,-11.01,0,*63
1494201916.12,4250,15.25,72792.0,-3.79,-12.43,-10.89,0,*6A
1494201917.32,4251,15.25,72792.8,-3.79,-12.43,-10.89,0,*6B
1494201918.52,4252,15.25,72790.3,-3.79,-12.39,-10.97,0,*6A
1494201919.72,4253,15.25,72788.5,-3.79,-12.39,-10.85,0,*68
1494201920.92,4254,15.25,72790.8,-3.79,-12.39,-10.89,0,*63
1494201922.14,4255,15.25,72794.8,-3.77,-12.25,-10.85,0,*6D
1494201923.39,4256,15.25,72792.0,-3.79,-12.35,-10.71,0,*6A
1494201924.62,4257,15.25,72790.8,-3.77,-12.39,-10.97,0,*61
1494201925.85,4258,15.25,72792.5,-3.79,-12.35,-10.89,0,*63
1494201927.05,4259,15.25,72792.0,-3.79,-12.39,-10.89,0,*6E
1494201928.28,4260,15.25,72792.3,-3.79,-12.25,-10.71,0,*6E
1494201929.53,4261,15.25,72792.5,-3.77,-12.35,-10.89,0,*67
1494201930.76,4262,15.25,72790.3,-3.79,-12.35,-10.85,0,*66
1494201932.01,4263,15.25,72794.3,-3.79,-12.35,-10.75,0,*68
1494201933.26,4264,15.25,72794.3,-3.77,-12.35,-10.85,0,*6E
1494201934.46,4265,15.25,72792.5,-3.79,-12.25,-10.85,0,*60
1494201935.69,4266,15.25,72792.5,-3.79,-12.35,-10.89,0,*6E
1494201936.89,4267,15.25,72792.5,-3.79,-12.43,-10.89,0,*6E
1494201938.11,4268,15.25,72790.8,-3.77,-12.43,-10.97,0,*60
1494201939.35,4269,15.25,72790.0,-3.79,-12.53,-10.97,0,*6E
1494201940.55,4270,15.25,72794.5,-3.79,-12.43,-10.89,0,*68
1494201941.77,4271,15.25,72792.3,-3.77,-12.39,-10.89,0,*6A
1494201942.96,4272,15.25,72792.0,-3.79,-12.39,-10.85,0,*6B
1494201944.16,4273,15.25,72792.5,-3.79,-12.39,-10.89,0,*66
1494201945.39,4274,15.25,72794.0,-3.77,-12.39,-10.89,0,*6F
1494201946.61,4275,15.25,72794.5,-3.77,-12.39,-10.89,0,*6E
1494201947.84,4276,15.25,72792.5,-3.77,-12.25,-10.89,0,*60
1494201949.04,4277,15.25,72788.0,-3.79,-12.43,-10.89,0,*6F
1494201950.24,4278,15.25,72792.5,-3.79,-12.43,-10.97,0,*6F
1494201951.5,4279,15.25,72792.3,-3.77,-12.57,-11.01,0,*6B
1494201952.72,4280,15.25,72790.8,-3.77,-12.43,-10.97,0,*66
1494201953.95,4281,15.25,72788.3,-3.79,-12.53,-11.01,0,*66
1494201955.16,4282,15.25,72788.8,-3.79,-12.43,-10.97,0,*6A
1494201956.36,4283,15.25,72790.5,-3.79,-12.39,-10.89,0,*69
1494201957.58,4284,15.25,72786.8,-3.79,-12.35,-10.85,0,*6E
1494201958.8,4285,15.25,72786.0,-3.77,-12.39,-10.89,0,*61
1494201960.0,4286,15.25,72786.0,-3.79,-12.43,-10.89,0,*61
1494201961.21,4287,15.25,72790.3,-3.79,-12.43,-10.97,0,*6F
1494201962.46,4288,15.25,72786.5,-3.77,-12.53,-10.97,0,*6F
1494201963.66,4289,15.25,72780.0,-3.79,-12.39,-10.85,0,*6F
1494201964.91,4290,15.25,72784.3,-3.77,-12.35,-10.89,0,*69
1494201966.14,4291,15.25,72786.5,-3.77,-12.39,-10.89,0,*64
1494201967.35,4292,15.25,72788.0,-3.77,-12.39,-10.85,0,*6B
1494201968.55,4293,15.25,72788.3,-3.79,-12.39,-10.89,0,*68
1494201969.75,4294,15.25,72786.0,-3.79,-12.39,-10.89,0,*6F
1494201971.01,4295,15.25,72790.3,-3.79,-12.35,-10.75,0,*61
1494201972.23,4296,15.25,72794.3,-3.77,-12.39,-10.89,0,*63
1494201973.46,4297,15.25,72784.3,-3.77,-12.43,-10.97,0,*60
1494201974.71,4298,15.25,72784.8,-3.77,-12.35,-10.85,0,*6D
1494201975.91,4299,15.25,72792.8,-3.79,-12.43,-10.89,0,*6F
1494201977.13,4300,15.25,72788.8,-3.77,-12.39,-10.89,0,*6D
1494201978.38,4301,15.25,72790.0,-3.77,-12.57,-11.01,0,*65
1494201979.64,4302,15.25,72790.5,-3.77,-12.53,-11.01,0,*62
1494201980.89,4303,15.25,72790.0,-3.77,-12.57,-10.97,0,*69
1494201982.12,4304,15.25,72786.0,-3.77,-12.43,-11.01,0,*65
1494201983.37,4305,15.25,72790.8,-3.77,-12.57,-11.11,0,*60
1494201984.59,4306,15.25,72788.8,-3.79,-12.57,-11.11,0,*6D
1494201985.81,4307,15.25,72794.5,-3.77,-12.39,-10.89,0,*6A
1494201987.01,4308,15.25,72794.0,-3.79,-12.43,-10.85,0,*6A
1494201988.27,4309,15.25,72792.3,-3.77,-12.53,-10.97,0,*67
1494201989.46,4310,15.25,72794.0,-3.79,-12.43,-10.85,0,*63
1494201990.71,4311,15.25,72790.8,-3.77,-12.57,-10.97,0,*6A
1494201991.97,4312,15.25,72788.5,-3.77,-12.53,-11.01,0,*63
1494201993.2,4313,15.25,72788.3,-3.79,-12.57,-11.01,0,*68
1494201994.42,4314,15.25,72788.0,-3.77,-12.43,-10.97,0,*6A
1494201995.67,4315,15.25,72792.3,-3.77,-12.57,-11.01,0,*60
1494201996.93,4316,15.25,72788.5,-3.77,-12.57,-11.01,0,*63
1494201998.18,4317,15.25,72790.8,-3.77,-12.57,-11.01,0,*62
1494201999.43,4318,15.25,72794.0,-3.77,-12.53,-11.01,0,*69
1494202000.68,4319,15.25,72792.8,-3.77,-12.65,-11.11,0,*6C
1494202001.93,4320,15.25,72790.8,-3.77,-12.65,-11.11,0,*66
1494202003.18,4321,15.25,72794.3,-3.77,-12.65,-11.01,0,*66
1494202004.44,4322,15.25,72790.0,-3.77,-12.53,-11.01,0,*60
1494202005.69,4323,15.25,72788.5,-3.77,-12.57,-11.11,0,*64
1494202006.93,4324,15.25,72794.5,-3.77,-12.71,-11.23,0,*66
1494202008.18,4325,15.25,72792.0,-3.77,-12.71,-11.23,0,*67
1494202009.44,4326,15.25,72788.5,-3.77,-12.57,-11.01,0,*60
1494202010.69,4327,15.25,72792.8,-3.77,-12.57,-11.01,0,*61
1494202011.94,4328,15.25,72794.3,-3.77,-12.71,-11.11,0,*6B
1494202013.19,4329,15.25,72792.0,-3.77,-12.71,-11.15,0,*6E
1494202014.44,4330,15.25,72794.5,-3.77,-12.71,-11.15,0,*66
1494202015.66,4331,15.25,72792.0,-3.79,-12.83,-11.41,0,*65
1494202016.94,4332,15.25,72792.3,-3.77,-12.79,-11.29,0,*63
1494202018.15,4333,15.25,72792.0,-3.79,-12.93,-11.41,0,*66
1494202019.4,4334,15.25,72794.5,-3.79,-12.71,-11.29,0,*63
1494202020.62,4335,15.25,72796.0,-3.79,-12.65,-11.11,0,*6C
1494202021.87,4336,15.25,72792.0,-3.77,-12.65,-11.11,0,*61
1494202023.12,4337,15.25,72796.5,-3.79,-12.83,-11.29,0,*6D
1494202024.35,4338,15.25,72794.5,-3.79,-12.65,-11.11,0,*61
1494202025.57,4339,15.25,72794.0,-3.79,-12.65,-11.01,0,*61
1494202026.8,4340,15.25,72794.5,-3.79,-12.65,-11.11,0,*6E
1494202028.02,4341,15.25,72792.3,-3.79,-12.65,-11.11,0,*6F
1494202029.28,4342,15.25,72788.8,-3.81,-12.71,-11.15,0,*6A
1494202030.5,4343,15.25,72790.3,-3.79,-12.65,-11.15,0,*69
1494202031.75,4344,15.25,72792.0,-3.79,-12.83,-11.37,0,*66
1494202032.97,4345,15.25,72796.0,-3.79,-12.79,-11.11,0,*66
1494202034.22,4346,15.25,72794.5,-3.79,-12.79,-11.29,0,*6E
1494202035.45,4347,15.25,72792.3,-3.79,-12.93,-11.37,0,*64
1494202036.7,4348,15.25,72792.0,-3.79,-12.83,-11.29,0,*65
1494202037.93,4349,15.25,72792.5,-3.77,-12.97,-11.41,0,*61
1494202039.16,4350,15.25,72794.3,-3.81,-12.89,-11.41,0,*6F
1494202040.44,4351,15.25,72794.3,-3.81,-12.71,-11.29,0,*67
1494202041.72,4352,15.25,72792.8,-3.81,-12.75,-11.29,0,*60
1494202042.97,4353,15.25,72792.0,-3.81,-12.89,-11.33,0,*69
1494202044.24,4354,15.25,72792.3,-3.81,-12.83,-11.33,0,*64
1494202045.47,4355,15.25,72792.0,-3.83,-12.71,-11.15,0,*6E
1494202046.75,4356,15.25,72794.3,-3.81,-12.71,-11.29,0,*60
1494202047.98,4357,15.25,72792.5,-3.83,-12.75,-11.19,0,*64
1494202049.23,4358,15.25,72790.5,-3.81,-12.57,-11.15,0,*65
1494202050.49,4359,15.25,72788.8,-3.81,-12.75,-11.15,0,*64
1494202051.72,4360,15.25,72792.3,-3.81,-12.43,-10.93,0,*64
1494202052.99,4361,15.25,72792.0,-3.81,-12.61,-11.07,0,*69
1494202054.25,4362,15.25,72792.3,-3.83,-12.71,-11.29,0,*65
1494202055.5,4363,15.25,72794.3,-3.81,-12.57,-11.01,0,*68
1494202056.78,4364,15.25,72798.8,-3.81,-12.61,-11.07,0,*6C
1494202058.03,4365,15.25,72792.3,-3.81,-12.61,-11.15,0,*6E
1494202059.28,4366,15.25,72792.3,-3.81,-12.61,-11.15,0,*6D
1494202060.57,4367,15.25,72794.5,-3.81,-12.71,-11.07,0,*6E
1494202061.82,4368,15.25,72792.5,-3.81,-12.57,-11.01,0,*63
1494202063.05,4369,15.25,72790.8,-3.79,-12.57,-10.97,0,*6B
1494202064.28,4370,15.25,72794.5,-3.79,-12.57,-10.97,0,*63
1494202065.51,4371,15.25,72792.0,-3.79,-12.71,-11.11,0,*69
1494202066.74,4372,15.25,72798.0,-3.79,-12.71,-11.23,0,*6B
1494202067.99,4373,15.25,72796.3,-3.81,-12.71,-11.15,0,*68
1494202069.22,4374,15.25,72792.0,-3.79,-12.53,-11.01,0,*6D
1494202070.45,4375,15.25,72794.8,-3.79,-12.53,-10.97,0,*62
1494202071.73,4376,15.25,72788.8,-3.81,-12.61,-11.07,0,*6F
1494202072.96,4377,15.25,72796.0,-3.79,-12.57,-10.97,0,*64
1494202074.19,4378,15.25,72792.0,-3.79,-12.57,-11.01,0,*65
1494202075.42,4379,15.25,72794.5,-3.79,-12.71,-11.11,0,*61
1494202076.67,4380,15.25,72792.8,-3.77,-12.65,-11.11,0,*6C
1494202077.89,4381,15.25,72792.0,-3.79,-12.57,-11.01,0,*63
1494202079.14,4382,15.25,72794.3,-3.77,-12.57,-11.01,0,*6E
1494202080.37,4383,15.25,72794.5,-3.79,-12.57,-11.15,0,*64
1494202081.62,4384,15.25,72796.3,-3.77,-12.57,-10.97,0,*66
1494202082.87,4385,15.25,72792.5,-3.77,-12.65,-11.11,0,*69
1494202084.12,4386,15.25,72794.0,-3.77,-12.57,-11.11,0,*6B
1494202085.37,4387,15.25,72800.3,-3.77,-12.53,-11.11,0,*6E
1494202086.6,4388,15.25,72796.3,-3.79,-12.57,-11.01,0,*6A
1494202087.86,4389,15.25,72792.8,-3.77,-12.57,-10.97,0,*6B
1494202089.11,4390,15.25,72796.0,-3.77,-12.71,-11.23,0,*69
1494202090.36,4391,15.25,72794.0,-3.77,-12.65,-11.11,0,*6C
1494202091.61,4392,15.25,72796.0,-3.77,-12.65,-11.11,0,*6F
1494202092.83,4393,15.25,72798.0,-3.79,-12.57,-11.11,0,*61
1494202094.08,4394,15.25,72796.5,-3.79,-12.71,-11.29,0,*69
1494202095.31,4395,15.25,72796.0,-3.79,-12.79,-11.23,0,*6A
1494202096.59,4396,15.25,72796.8,-3.77,-12.79,-11.29,0,*6D
1494202097.83,4397,15.25,72796.8,-3.77,-12.93,-11.37,0,*67
1494202099.06,4398,15.25,72796.3,-3.79,-12.97,-11.37,0,*62
1494202100.28,4399,15.25,72796.5,-3.79,-12.79,-11.11,0,*67
1494202101.51,4400,15.25,72800.8,-3.79,-12.71,-11.15,0,*6C
1494202102.76,4401,15.25,72798.8,-3.77,-12.79,-11.23,0,*6E